Fort Collins, CO

7:55 PM MST on December 10, 2019 (GMT -0700)
Fort Collins-Loveland Municipal

Weather History for KFNL - October, 2019

Change the Weather History Date:

Thursday, October 31, 2019

  Actual Average Record
Temperature  
Mean Temperature 25 °F -  
Max Temperature 45 °F - 77 °F (2016)
Min Temperature 5 °F - 5 °F (2019)
Degree Days  
Heating Degree Days 40    
Month to date heating degree days 659  
Cooling Degree Days 0    
Month to date cooling degree days 0  
Moisture  
Dew Point 10 °F    
Average Humidity 63    
Maximum Humidity 92    
Minimum Humidity 33    
Precipitation  
Precipitation 0.00 in - 0.25 in (2000)
Snow  
Snow 0.00 in - - ()
Snow Depth 0.00 in    
Sea Level Pressure  
Sea Level Pressure 30.26 in    
Wind  
Wind Speed 2 mph (NE)    
Max Wind Speed 7 mph    
Max Gust Speed -    
Visibility 9 miles    
Events      
T = Trace of Precipitation, MM = Missing Value Source: NWS Daily Summary

Daily Weather History Graph

Daily Weather History Graph

Search for Another Location

Airport or City:

Astronomy

Oct. 31, 2019 Rise Set
Actual Time 7:28 AM MDT 5:58 PM MDT
Civil Twilight 7:00 AM MDT 6:26 PM MDT
Nautical Twilight 6:28 AM MDT 6:58 PM MDT
Astronomical Twilight 5:56 AM MDT 7:30 PM MDT
Moon 11:20 AM MDT (10/31) 8:56 PM MDT (10/31)
Length of Visible Light 11h 26m
Length of Day
10h 29m
Waxing Crescent, 16% of the Moon is Illuminated
Oct 31
Waxing Crescent
Nov 4
First Quarter
Nov 12
Full
Nov 19
Last Quarter
Nov 26
New

Hourly Weather History & Observations

Time (MDT) Temp. Windchill Dew Point Humidity Pressure Visibility Wind Dir Wind Speed Gust Speed Precip Events Conditions
12:56 AM 8.1 °F - 3.9 °F 83% 30.40 in 10.0 mi Calm Calm - N/A   Clear
1:56 AM 7.0 °F - 3.0 °F 84% 30.39 in 10.0 mi Calm Calm - N/A   Scattered Clouds
2:13 AM 6.8 °F -2.0 °F 3.2 °F 85% 30.21 in 10.0 mi North 4.6 mph - N/A   Mostly Cloudy
2:26 AM 8.6 °F 2.0 °F 3.2 °F 79% 30.20 in 10.0 mi NE 3.5 mph - N/A   Scattered Clouds
2:56 AM 6.1 °F - 3.0 °F 87% 30.36 in 10.0 mi Calm Calm - N/A   Scattered Clouds
3:04 AM 6.8 °F -2.0 °F 3.2 °F 85% 30.18 in 10.0 mi North 4.6 mph - N/A   Mostly Cloudy
3:41 AM 6.8 °F -2.0 °F 3.2 °F 85% 30.17 in 10.0 mi NE 4.6 mph - N/A   Scattered Clouds
3:56 AM 7.0 °F -1.7 °F 3.0 °F 84% 30.35 in 10.0 mi North 4.6 mph - N/A   Partly Cloudy
4:56 AM 7.0 °F -1.7 °F 3.9 °F 87% 30.34 in 8.0 mi NE 4.6 mph - N/A   Clear
5:17 AM 5.0 °F -5.6 °F 1.4 °F 85% 30.18 in 1.8 mi Variable 5.8 mph - N/A   Scattered Clouds
5:26 AM 5.0 °F -4.1 °F 1.4 °F 85% 30.18 in 1.0 mi North 4.6 mph - N/A   Mist
5:29 AM 5.0 °F -5.6 °F 1.4 °F 85% 30.18 in 2.5 mi North 5.8 mph - N/A   Partly Cloudy
5:56 AM 5.0 °F - 1.9 °F 87% 30.38 in 10.0 mi Calm Calm - N/A   Clear
6:56 AM 6.1 °F - 3.0 °F 87% 30.39 in 10.0 mi Calm Calm - N/A   Clear
7:56 AM 8.1 °F 1.4 °F 5.0 °F 87% 30.39 in 10.0 mi NNE 3.5 mph - N/A   Clear
8:56 AM 10.9 °F 4.7 °F 8.1 °F 88% 30.39 in 10.0 mi South 3.5 mph - N/A   Clear
9:56 AM 19.0 °F 12.3 °F 15.1 °F 85% 30.35 in 10.0 mi SSE 4.6 mph - N/A   Clear
10:56 AM 32.0 °F - 19.9 °F 61% 30.31 in 10.0 mi Calm Calm - N/A   Clear
11:56 AM 30.0 °F - 17.1 °F 59% 30.31 in 10.0 mi Calm Calm - N/A   Clear
12:56 PM 36.0 °F - 15.1 °F 43% 30.25 in 10.0 mi Calm Calm - N/A   Clear
1:56 PM 35.1 °F - 16.0 °F 46% 30.24 in 10.0 mi Calm Calm - N/A   Clear
2:56 PM 41.0 °F - 17.1 °F 38% 30.21 in 10.0 mi Calm Calm - N/A   Clear
4:56 PM 41.0 °F 38.0 °F 16.0 °F 36% 30.20 in 10.0 mi East 4.6 mph - N/A   Clear
5:56 PM 35.1 °F 30.1 °F 16.0 °F 46% 30.22 in 10.0 mi SE 5.8 mph - N/A   Clear
6:56 PM 34.0 °F - 15.1 °F 46% 30.22 in 10.0 mi Calm Calm - N/A   Clear
7:56 PM 30.0 °F 26.5 °F 19.9 °F 66% 30.22 in 10.0 mi South 3.5 mph - N/A   Clear
8:56 PM 30.9 °F - 21.9 °F 69% 30.21 in 10.0 mi Calm Calm - N/A   Clear
9:56 PM 26.1 °F - 19.9 °F 78% 30.20 in 10.0 mi Calm Calm - N/A   Clear
10:56 PM 30.0 °F 23.2 °F 21.0 °F 69% 30.15 in 10.0 mi North 6.9 mph - N/A   Clear
11:56 PM 28.9 °F 23.9 °F 21.9 °F 75% 30.15 in 10.0 mi ENE 4.6 mph - N/A   Clear